Location: Arroyo de Valdeoliva
(40.1604°N, 4.9878°W)
Time: 02:41:05
(UTC+00:00)

Cosmos 1953 Rocket - Pass Details

Date: 11 December 2025
Orbit: 599 x 627 km, 82.5° (Epoch: 14 January)

Event Time Altitude Azimuth Distance (km) Brightness Sun altitude
Rises 18:50:22 0° 346° (NNW) 2,914 7.0 -21.4°
Reaches altitude 10° 18:52:39 10° 342° (NNW) 2,006 6.2 -21.9°
Maximum altitude 18:56:57 51° 267° (W) 792 4.4 -22.7°
Drops below altitude 10° 19:01:14 10° 191° (SSW) 1,994 6.4 -23.5°
Sets 19:03:30 0° 187° (S) 2,896 7.2 -23.9°
